Location: *
(44.1392°N, 4.8079°E)
Time: 21:22:01
(UTC+00:00)

FALCON 9 DEB - Pass Details

Date: 21 June 2021
Orbit: 363 x 377 km, 53.0° (Epoch: 01 August)

Event Time Altitude Azimuth Distance (km) Brightness Sun altitude
Rises 03:10:19 0° 299° (WNW) 2,264 6.6 -7.4°
Reaches altitude 10° 03:12:27 10° 291° (WNW) 1,405 5.5 -7.1°
Maximum altitude 03:15:23 37° 222° (SW) 615 3.4 -6.7°
Drops below altitude 10° 03:18:17 10° 153° (SSE) 1,388 5.5 -6.4°
Sets 03:20:23 0° 144° (SE) 2,232 6.7 -6.1°
